Weather History for KRAL - October, 2012

Change the Weather History Date:

Friday, October 12, 2012

  Actual Average Record
Temperature  
Mean Temperature 61 °F 69 °F  
Max Temperature 69 °F 83 °F 107 °F (1950)
Min Temperature 52 °F 56 °F 35 °F (1924)
Degree Days  
Heating Degree Days 4 1  
Month to date heating degree days 8 2  
Since 1 July heating degree days 8 4  
Cooling Degree Days 0 5  
Month to date cooling degree days 98 75  
Year to date cooling degree days 2086 1667  
Growing Degree Days 10 (Base 50)    
Moisture  
Dew Point 51 °F    
Average Humidity 73    
Maximum Humidity 96    
Minimum Humidity 49    
Precipitation  
Precipitation 0.01 in 0.01 in 0.41 in (1928)
Month to date precipitation 0.25 0.05  
Year to date precipitation 3.11 9.64  
Since 1 July precipitation 0.26 0.45  
Snow  
Snow 0.00 in - - ()
Month to date snowfall 0.0  
Year to date snowfall 0.0  
Since 1 July snowfall 0.0  
Snow Depth 0.00 in    
Sea Level Pressure  
Sea Level Pressure 30.06 in    
Wind  
Wind Speed 1 mph (West)    
Max Wind Speed 9 mph    
Max Gust Speed 13 mph    
Visibility 10 miles    
Events      
T = Trace of Precipitation, MM = Missing Value Source: NWS Daily Summary

Daily Weather History Graph

Daily Weather History Graph

Search for Another Location

Airport or City:

Trip Planner

Search our weather history database for the weather conditions in past years. The results will help you decide how hot, cold, wet, or windy it might be!

Date:

Astronomy

Oct. 12, 2012 Rise Set
Actual Time 6:52 AM PDT 6:18 PM PDT
Civil Twilight 6:27 AM PDT 6:43 PM PDT
Nautical Twilight 5:58 AM PDT 7:12 PM PDT
Astronomical Twilight 5:29 AM PDT 7:41 PM PDT
Moon 3:48 AM PDT (10/12) 4:25 PM PDT (10/12)
Length of Visible Light 12h 16m
Length of Day
11h 25m
Waning Crescent, 10% of the Moon is Illuminated
Oct 12
Waning Crescent
Oct 15
New
Oct 21
First Quarter
Oct 29
Full
Nov 6
Last Quarter

Hourly Weather History & Observations

Time (PDT) Temp. Dew Point Humidity Pressure Visibility Wind Dir Wind Speed Gust Speed Precip Events Conditions
1:53 AM 53.1 °F 51.1 °F 93% 29.97 in 10.0 mi Calm Calm - N/A   Scattered Clouds
2:53 AM 52.0 °F 50.0 °F 93% 29.96 in 9.0 mi Calm Calm - N/A   Clear
3:53 AM 53.1 °F 51.1 °F 93% 29.97 in 10.0 mi Calm Calm - N/A   Overcast
4:09 AM 53.6 °F 51.8 °F 94% 30.00 in 10.0 mi Calm Calm - N/A   Overcast
4:16 AM 51.8 °F 51.8 °F 100% 30.01 in 10.0 mi Calm Calm - N/A   Overcast
4:43 AM 51.8 °F 50.0 °F 94% 30.01 in 10.0 mi Calm Calm - N/A   Overcast
4:53 AM 52.0 °F 50.0 °F 93% 29.99 in 10.0 mi Calm Calm - N/A   Mostly Cloudy
5:53 AM 53.1 °F 51.1 °F 93% 30.01 in 10.0 mi Calm Calm - 0.01 in   Mostly Cloudy
7:53 AM 55.0 °F 52.0 °F 89% 30.05 in 10.0 mi Calm Calm - N/A   Mostly Cloudy
8:53 AM 57.9 °F 52.0 °F 81% 30.06 in 10.0 mi Calm Calm - N/A   Scattered Clouds
9:53 AM 61.0 °F 53.1 °F 75% 30.09 in 10.0 mi Calm Calm - N/A   Mostly Cloudy
10:53 AM 63.0 °F 50.0 °F 63% 30.10 in 10.0 mi NW 3.5 mph - N/A   Mostly Cloudy
12:53 PM 66.0 °F 50.0 °F 56% 30.10 in 10.0 mi West 3.5 mph - N/A   Mostly Cloudy
1:53 PM 66.9 °F 51.1 °F 57% 30.08 in 10.0 mi Variable 3.5 mph - N/A   Mostly Cloudy
3:53 PM 66.9 °F 48.9 °F 52% 30.07 in 10.0 mi West 3.5 mph - N/A   Overcast
4:53 PM 68.0 °F 48.0 °F 49% 30.07 in 10.0 mi Calm Calm - N/A   Mostly Cloudy
5:53 PM 66.9 °F 51.1 °F 57% 30.08 in 10.0 mi West 8.1 mph - N/A   Overcast
6:53 PM 64.9 °F 51.1 °F 61% 30.09 in 10.0 mi West 6.9 mph - N/A   Overcast
7:53 PM 64.0 °F 51.1 °F 63% 30.11 in 10.0 mi West 6.9 mph - N/A   Overcast
8:53 PM 63.0 °F 51.1 °F 65% 30.11 in 10.0 mi West 3.5 mph - N/A   Overcast
9:53 PM 61.0 °F 52.0 °F 72% 30.13 in 10.0 mi West 3.5 mph - N/A   Clear
10:53 PM 60.1 °F 53.1 °F 78% 30.14 in 10.0 mi Calm Calm - N/A   Clear
11:53 PM 57.9 °F 52.0 °F 81% 30.13 in 10.0 mi Calm Calm - N/A   Clear